Date,TemperatureHighF,TemperatureAvgF,TemperatureLowF,DewpointHighF,DewpointAvgF,DewpointLowF,HumidityHigh,HumidityAvg,HumidityLow,PressureMaxIn,PressureMinIn,WindSpeedMaxMPH,WindSpeedAvgMPH,GustSpeedMaxMPH,PrecipitationSumIn
2013-1-1,48.4,44.0,39.7,45.3,31.6,17.0,92,64,38,30.09,29.91,7,0,7,0.24
2013-1-2,49.1,44.8,39.9,45.4,31.1,17.6,95,63,35,30.15,29.88,6,1,6,0.16
2013-1-3,43.2,37.8,28.9,22.2,17.7,13.5,75,45,34,30.24,30.09,5,0,5,0.00
2013-1-4,51.1,35.3,24.6,25.2,16.0,6.6,76,49,28,30.29,30.18,10,1,10,0.04
2013-1-5,52.0,37.8,24.8,19.9,13.1,7.4,55,37,28,30.35,30.18,5,0,5,0.00
2013-1-6,55.6,43.9,36.5,28.6,20.9,13.9,65,41,28,30.21,30.03,6,0,6,0.00
2013-1-7,52.2,39.2,30.2,21.0,16.8,13.1,62,41,28,30.38,30.15,6,1,6,0.00
2013-1-8,51.6,39.7,26.2,28.5,20.8,13.6,70,48,31,30.41,30.32,6,0,6,0.00
2013-1-9,60.6,48.4,36.1,38.6,33.1,25.2,80,58,36,30.41,30.32,8,0,8,0.00
2013-1-10,59.7,51.4,43.5,45.3,29.8,18.1,87,49,26,30.47,30.35,10,1,10,0.00
2013-1-11,48.9,43.7,41.0,43.7,36.8,18.1,96,80,29,30.38,30.15,8,1,8,0.12
2013-1-12,63.3,52.1,44.8,60.5,50.0,43.5,98,93,75,30.15,30.06,4,0,4,0.04
2013-1-13,70.7,59.2,49.1,64.9,49.3,44.1,98,74,39,30.12,30.03,13,1,13,0.00
2013-1-14,63.1,60.1,54.5,62.3,57.4,51.5,97,91,75,30.15,30.03,9,0,9,0.63
2013-1-15,56.8,44.2,41.0,53.4,42.5,38.9,96,94,91,30.18,30.06,10,2,10,0.51
2013-1-16,48.6,44.0,39.9,47.8,43.1,38.9,98,97,95,30.06,29.91,6,0,6,0.43
2013-1-17,49.6,43.0,33.6,49.1,41.7,31.0,98,95,89,30.15,29.88,13,2,13,2.05
2013-1-18,47.7,35.9,29.5,33.2,23.3,13.6,95,65,29,30.47,30.12,8,0,8,0.31
2013-1-19,54.1,37.3,25.2,29.7,19.9,13.7,82,54,27,30.44,30.12,9,1,9,0.00
2013-1-20,62.6,43.2,29.3,29.7,20.5,13.3,74,43,25,30.12,29.97,13,1,13,0.00
2013-1-21,59.7,41.5,28.2,28.8,18.3,9.2,70,42,26,30.06,29.88,16,2,16,0.00
2013-1-22,39.2,31.5,25.3,10.6,5.0,0.3,33,32,31,30.21,29.94,13,1,13,0.00
2013-1-23,43.9,30.4,20.8,14.5,4.4,-3.1,38,33,29,30.29,30.00,15,1,15,0.00
2013-1-24,37.6,30.0,23.9,12.6,6.1,-1.0,48,36,31,30.44,29.91,13,1,13,0.00
2013-1-25,26.1,24.0,21.4,16.6,4.4,-2.6,67,44,33,30.44,30.06,8,1,8,0.00
2013-1-26,40.5,31.1,22.8,26.7,18.5,15.2,78,60,37,30.32,30.03,5,0,5,0.04
2013-1-27,42.4,33.3,22.1,16.0,12.9,8.3,62,43,32,30.53,30.32,6,1,6,0.00
2013-1-28,48.2,41.1,34.2,36.7,24.0,14.2,74,51,38,30.41,30.18,10,0,10,0.04
2013-1-29,70.2,54.5,42.6,53.9,39.8,34.7,96,63,30,30.21,30.00,8,1,8,0.00
2013-1-30,71.4,65.3,53.6,57.7,50.0,40.1,84,59,33,30.03,29.41,23,5,23,0.87
2013-1-31,55.6,42.4,34.0,51.2,17.6,7.2,88,38,29,29.97,29.44,19,4,19,0.24
2013-2-1,38.7,32.2,24.4,12.6,6.0,-0.5,36,33,31,30.32,29.82,17,2,17,0.00
2013-2-2,40.5,30.9,19.4,15.1,5.8,-1.9,46,34,30,30.32,29.97,11,1,11,0.00
2013-2-3,50.2,39.2,31.1,23.9,16.2,8.0,66,41,28,30.03,29.82,17,2,17,0.00
2013-2-4,46.9,37.5,28.0,16.2,10.7,4.9,40,33,29,30.09,29.94,8,1,8,0.00
2013-2-5,61.5,44.3,33.6,26.2,17.4,10.8,51,34,26,29.94,29.85,14,1,14,0.00
2013-2-6,60.6,43.8,29.5,32.3,19.8,10.5,70,41,26,30.21,29.94,10,1,10,0.00
2013-2-7,42.6,38.7,36.1,32.5,21.0,10.5,84,52,30,30.27,30.00,10,3,10,0.67
2013-2-8,58.3,44.0,35.8,38.2,27.0,11.3,85,57,27,30.06,29.82,17,2,17,0.12
2013-2-9,55.4,41.5,30.4,22.0,13.3,6.8,41,32,27,30.29,30.03,10,1,10,0.00
2013-2-10,54.5,40.0,27.9,31.4,14.9,7.7,67,37,27,30.41,30.15,9,1,9,0.08
2013-2-11,55.6,47.6,40.8,54.5,43.8,26.4,96,87,69,30.15,29.91,5,0,5,0.08
2013-2-12,59.7,49.1,38.1,49.3,24.3,17.3,93,41,26,30.06,29.91,10,1,10,0.00
2013-2-13,49.3,44.2,36.9,43.2,36.3,19.9,89,75,41,29.94,29.62,9,0,9,0.35
2013-2-14,53.4,40.7,30.2,32.7,21.8,15.9,81,50,28,30.00,29.79,10,1,10,0.00
2013-2-15,61.3,44.7,29.1,33.7,23.3,17.9,79,47,26,30.06,29.88,10,1,10,0.00
2013-2-16,42.3,36.6,29.1,22.6,14.2,3.6,58,40,32,29.97,29.79,10,1,10,0.00
2013-2-17,39.2,30.3,24.1,11.0,4.2,-0.7,35,32,30,30.18,29.91,15,2,15,0.00
2013-2-18,54.9,37.0,18.9,21.5,10.5,0.0,46,34,27,30.32,30.12,10,2,10,0.00
2013-2-19,48.7,40.9,35.4,40.1,21.2,9.5,81,48,30,30.15,29.82,10,1,10,0.08
2013-2-20,53.8,40.5,27.1,21.0,12.0,3.0,38,31,27,30.09,29.94,11,1,11,0.00
2013-2-21,57.0,41.7,24.8,23.2,12.6,1.1,38,30,27,30.21,30.06,8,1,8,0.00
2013-2-22,45.9,35.0,33.3,31.1,26.2,12.4,86,72,30,30.27,30.06,8,1,8,0.31
2013-2-23,47.3,40.2,34.7,39.2,34.7,30.8,92,82,58,30.12,29.79,7,0,7,0.20
2013-2-24,62.8,49.5,38.1,45.1,28.9,16.0,96,53,25,30.00,29.79,13,1,13,0.00
2013-2-25,46.6,38.4,34.3,16.0,10.6,8.5,34,31,29,30.15,30.00,9,1,9,0.00
2013-2-26,39.2,35.9,32.7,37.9,27.7,8.5,95,76,32,30.09,29.56,13,2,13,0.75
2013-2-27,57.4,46.4,37.4,44.4,29.4,19.0,97,59,27,29.76,29.59,11,2,11,0.04
2013-2-28,48.2,42.0,36.1,28.0,16.4,11.6,54,36,29,29.85,29.67,13,2,13,0.00
2013-3-1,44.6,40.7,36.9,16.3,13.6,10.2,41,33,30,29.88,29.79,9,1,9,0.00
2013-3-2,44.6,38.1,33.8,15.1,11.5,7.1,41,33,30,29.88,29.79,9,0,9,0.00
2013-3-3,42.6,34.8,28.8,13.4,7.6,2.6,33,31,30,29.94,29.85,13,2,13,0.00
2013-3-4,54.0,37.8,26.2,21.1,9.6,1.1,33,31,27,30.06,29.94,8,1,8,0.00
2013-3-5,49.3,41.3,34.7,47.3,22.6,7.9,96,52,29,30.00,29.56,6,1,6,0.43
2013-3-6,46.4,39.5,34.9,39.9,25.9,19.2,97,60,42,30.06,29.56,19,4,19,0.08
2013-3-7,50.2,40.0,30.2,26.9,23.5,19.4,66,52,39,30.21,30.03,10,2,10,0.00
2013-3-8,55.2,39.7,26.1,25.9,22.6,20.0,83,54,29,30.27,30.15,13,1,13,0.00
2013-3-9,61.3,44.5,28.2,30.8,26.4,22.2,78,53,27,30.29,30.18,8,1,8,0.00
2013-3-10,65.5,49.4,32.7,35.9,30.9,26.6,80,52,30,30.27,30.15,9,1,9,0.00
2013-3-11,65.1,54.1,40.1,52.4,37.4,21.1,84,54,33,30.15,29.85,13,2,13,0.00
2013-3-12,64.0,56.8,45.3,57.5,44.9,29.5,98,69,34,29.94,29.70,14,1,14,0.43
2013-3-13,52.5,43.7,34.5,32.7,23.8,14.3,78,47,31,30.12,29.94,17,2,17,0.00
2013-3-14,52.3,39.4,28.9,20.3,15.7,11.6,50,39,27,30.21,30.09,14,2,14,0.00
2013-3-15,62.2,45.5,28.2,34.2,26.5,17.8,74,49,33,30.15,29.85,15,2,15,0.00
2013-3-16,77.9,58.8,42.1,51.1,42.1,32.9,76,57,31,29.85,29.65,13,2,13,0.00
2013-3-17,59.7,49.1,38.5,50.6,43.3,35.2,95,81,67,30.12,29.82,13,3,13,0.00
2013-3-18,38.5,37.2,36.5,37.4,36.6,36.0,98,98,94,30.12,29.82,10,0,10,0.12
2013-3-19,63.1,47.6,34.9,47.0,29.3,11.6,98,60,21,30.00,29.79,13,2,13,0.00
2013-3-20,55.6,45.9,34.3,19.7,15.3,9.6,44,29,22,30.06,29.73,13,2,13,0.00
2013-3-21,46.4,36.3,29.3,23.6,13.2,7.8,50,39,30,29.94,29.73,13,2,13,0.00
2013-3-22,51.4,36.4,22.3,21.5,13.6,7.7,58,40,26,30.03,29.91,11,1,11,0.00
2013-3-23,56.7,43.9,34.5,31.4,25.5,19.9,69,50,31,30.00,29.85,5,0,6,0.00
2013-3-24,43.2,38.3,34.0,36.9,33.5,30.1,96,83,65,29.88,29.53,11,2,11,0.51
2013-3-25,45.3,38.1,33.3,36.9,26.6,18.9,98,68,40,29.79,29.53,18,3,18,0.04
2013-3-26,46.6,38.7,30.7,25.6,22.7,19.4,71,53,41,30.09,29.76,13,1,13,0.00
2013-3-27,48.7,38.3,28.8,24.9,21.3,17.0,78,52,35,30.18,30.06,10,2,15,0.00
2013-3-28,54.3,39.9,25.7,25.9,22.1,17.9,79,52,30,30.21,30.12,15,1,15,0.00
2013-3-29,59.5,45.0,27.7,29.3,23.5,20.7,76,47,25,30.27,30.09,11,1,11,0.00
2013-3-30,64.6,51.1,35.8,34.9,30.0,26.6,72,47,26,30.18,30.00,10,1,10,0.00
2013-3-31,65.1,54.4,48.0,54.7,48.9,34.1,98,83,58,30.00,29.73,10,0,10,0.28
2013-4-1,68.5,56.6,44.8,53.0,43.0,32.7,98,66,34,29.91,29.76,11,2,14,0.00
2013-4-2,59.9,49.8,37.6,32.7,24.7,18.5,69,40,22,30.09,29.91,13,1,13,0.00
2013-4-3,58.8,47.9,32.9,23.6,20.3,16.3,61,35,22,30.21,30.06,8,1,8,0.00
2013-4-4,48.9,39.2,34.7,34.0,23.3,13.1,95,58,27,30.27,29.91,10,2,10,0.67
2013-4-5,64.2,48.8,35.2,46.2,37.4,32.0,98,70,33,29.97,29.82,5,0,5,0.08
2013-4-6,65.3,51.8,35.1,38.9,32.9,30.2,89,53,29,30.18,29.97,9,1,9,0.00
2013-4-7,70.3,57.8,43.3,43.8,38.3,30.0,72,50,34,30.18,30.03,14,2,14,0.00
2013-4-8,76.8,62.9,47.5,53.6,47.5,41.7,88,60,37,30.09,29.97,11,2,11,0.00
2013-4-9,83.1,69.3,51.8,54.0,50.7,46.9,89,55,32,30.12,30.00,10,1,10,0.00
2013-4-10,85.1,72.9,58.5,57.9,54.4,52.4,84,55,34,30.03,29.88,10,1,10,0.00
2013-4-11,80.2,70.8,61.7,65.2,57.4,53.6,87,64,41,29.91,29.70,13,2,13,0.00
2013-4-12,80.1,69.1,59.5,66.2,55.5,37.6,98,66,33,29.73,29.56,14,2,14,1.50
2013-4-13,74.5,60.9,45.1,43.5,37.1,29.7,75,44,21,29.97,29.73,11,1,11,0.04
2013-4-14,78.1,62.9,44.6,49.2,38.9,33.8,84,47,21,30.00,29.91,10,1,10,0.00
2013-4-15,63.1,58.4,54.5,56.8,54.6,49.3,98,87,61,30.12,29.94,4,0,4,0.20
2013-4-16,77.0,65.9,56.3,60.2,56.8,54.5,98,75,48,30.21,30.09,0,0,0,0.00
2013-4-17,78.6,68.5,59.2,60.4,57.3,54.0,96,70,43,30.15,30.06,0,0,0,0.00
2013-4-18,77.9,70.2,62.8,62.1,57.8,52.2,92,67,42,30.09,29.94,0,0,0,0.00
2013-4-19,75.6,67.2,56.1,65.8,61.2,44.3,97,81,64,29.94,29.67,12,0,12,0.20
2013-4-20,62.2,52.9,43.3,44.6,32.2,27.1,70,47,29,30.18,29.79,0,0,0,0.00
2013-4-21,58.8,49.9,40.3,36.9,32.7,26.9,84,53,38,30.38,30.15,0,0,0,0.00
2013-4-22,61.0,50.8,39.0,35.9,31.1,25.1,77,50,26,30.35,30.15,0,0,0,0.00
2013-4-23,67.6,57.0,47.7,50.6,42.7,35.1,78,60,45,30.18,30.00,0,0,0,0.00
2013-4-24,71.8,61.5,50.4,54.8,52.0,48.9,98,73,50,30.03,29.88,10,1,10,0.00
2013-4-25,68.0,57.1,46.0,54.5,35.4,25.2,72,47,20,30.21,29.94,6,0,7,0.00
2013-4-26,68.0,55.3,39.6,43.7,36.7,32.2,85,54,27,30.32,30.21,6,0,6,0.00
2013-4-27,66.2,58.7,53.1,52.6,47.9,43.1,87,68,51,30.27,30.15,6,0,6,0.00
2013-4-28,56.3,55.0,53.1,55.0,53.9,52.3,98,96,87,30.18,29.94,3,0,3,0.87
2013-4-29,67.3,58.5,53.1,59.8,56.2,52.5,98,92,69,29.97,29.88,0,0,0,0.16
2013-4-30,67.8,60.6,55.9,58.0,56.2,53.8,98,86,66,30.12,29.91,4,0,4,0.00
2013-5-1,64.8,59.4,55.2,56.1,54.4,51.6,97,84,67,30.24,30.09,6,0,6,0.00
2013-5-2,60.1,57.5,55.0,54.2,51.6,46.7,93,81,72,30.24,30.15,6,0,6,0.00
2013-5-3,65.1,57.8,50.7,54.2,48.5,38.1,98,73,49,30.18,30.06,8,0,8,0.00
2013-5-4,59.5,53.0,48.2,50.9,43.5,36.8,91,71,52,30.09,29.97,10,1,10,0.00
2013-5-5,54.9,52.0,48.9,54.3,46.7,39.5,98,83,61,30.00,29.85,10,1,10,0.04
2013-5-6,63.0,57.8,54.7,62.4,57.2,54.1,98,98,95,29.88,29.73,6,0,6,0.43
2013-5-7,66.9,57.9,52.5,60.8,54.3,47.4,98,89,51,29.85,29.73,8,0,8,0.20
2013-5-8,68.2,57.8,52.2,58.6,54.9,51.6,98,91,66,29.91,29.82,6,0,6,0.12
2013-5-9,77.9,63.7,50.2,61.4,54.1,49.6,98,75,40,30.00,29.88,7,0,7,0.12
2013-5-10,79.9,67.7,54.5,61.4,57.5,54.0,98,73,44,30.00,29.85,8,0,8,0.04
2013-5-11,76.3,68.8,61.9,63.5,59.6,56.0,98,74,52,29.88,29.73,7,0,7,0.08
2013-5-12,66.6,59.5,50.2,61.3,45.0,32.5,98,64,30,29.97,29.76,14,1,14,0.08
2013-5-13,64.2,52.6,40.1,43.3,34.5,28.0,88,54,27,30.06,29.94,9,0,9,0.00
2013-5-14,68.7,55.2,38.1,45.3,39.1,33.7,90,57,36,30.15,29.97,7,0,7,0.00
2013-5-15,86.0,68.4,51.3,65.6,54.7,43.5,87,64,43,29.97,29.85,6,0,6,0.00
2013-5-16,79.5,69.6,58.5,63.0,59.5,54.7,98,73,45,29.94,29.82,7,0,7,0.00
2013-5-17,81.7,70.0,57.7,62.5,59.4,55.7,98,72,42,30.03,29.91,5,0,5,0.00
2013-5-18,70.2,65.9,62.8,68.5,64.5,61.4,98,95,86,30.12,30.00,3,0,3,0.12
2013-5-19,73.9,67.8,65.1,69.9,66.4,63.3,98,95,82,30.12,30.03,5,0,5,0.04
2013-5-20,76.6,69.3,65.3,71.7,67.0,63.4,98,93,71,30.12,30.00,6,0,6,0.16
2013-5-21,83.3,73.0,64.2,77.7,67.8,63.7,98,86,56,30.06,29.94,8,0,8,0.04
2013-5-22,81.5,71.9,64.8,66.9,65.2,58.9,98,81,56,30.03,29.91,8,0,8,0.08
2013-5-23,75.4,67.6,62.2,68.7,64.2,58.6,98,90,63,29.97,29.85,10,0,10,0.20
2013-5-24,66.0,61.3,54.0,61.7,47.0,32.0,98,65,30,30.21,29.85,13,1,13,0.00
2013-5-25,73.2,59.1,45.0,42.1,35.6,29.4,85,45,22,30.27,30.15,9,0,9,0.00
2013-5-26,72.0,61.1,52.7,51.4,45.3,38.7,85,58,36,30.27,30.15,5,0,5,0.00
2013-5-27,77.5,65.6,53.1,55.4,51.7,48.9,94,64,40,30.27,30.15,6,0,6,0.00
2013-5-28,81.1,71.5,62.2,66.6,59.9,54.7,96,69,43,30.24,30.15,7,0,7,0.00
2013-5-29,82.0,72.6,62.1,65.1,60.5,55.1,97,68,41,30.24,30.15,6,0,6,0.00
2013-5-30,82.4,71.6,62.2,68.4,62.4,57.4,98,75,44,30.27,30.18,7,0,7,0.00
2013-5-31,82.6,72.6,64.0,73.2,65.1,60.0,98,79,50,30.24,30.12,8,0,8,0.00
2013-6-1,83.5,74.9,67.8,69.7,62.9,56.7,97,69,42,30.12,30.03,6,0,6,0.00
2013-6-2,78.1,71.8,66.4,69.5,63.9,60.5,98,77,64,30.06,29.94,6,0,6,0.91
2013-6-3,79.3,70.0,66.4,72.0,67.9,61.7,98,93,62,30.00,29.85,4,0,4,0.51
2013-6-4,71.6,67.0,63.1,67.2,63.8,60.1,98,90,68,30.12,29.97,4,0,4,0.04
2013-6-5,70.7,65.4,62.1,66.8,64.1,61.5,98,96,87,30.15,30.03,0,0,0,0.31
2013-6-6,71.8,68.6,64.8,71.2,68.0,64.2,98,98,97,30.03,29.82,0,0,0,0.94
2013-6-7,75.4,69.3,66.7,74.8,68.7,66.2,98,98,98,29.85,29.65,4,0,4,0.35
2013-6-8,79.0,70.6,62.6,67.8,64.1,56.6,98,82,49,30.09,29.85,4,0,4,0.43
2013-6-9,82.4,72.8,64.8,73.9,66.6,59.4,98,84,48,30.15,30.06,8,0,8,0.04
2013-6-10,77.4,71.8,68.4,74.1,69.8,65.6,98,94,83,30.09,29.88,11,0,11,0.71
2013-6-11,81.5,72.8,66.7,70.8,62.6,54.3,98,74,42,30.00,29.91,8,0,8,0.04
2013-6-12,87.6,75.7,64.2,71.2,67.4,63.1,98,77,55,30.00,29.88,5,0,5,0.04
2013-6-13,88.7,76.5,66.0,73.8,68.1,55.5,98,79,41,29.91,29.67,8,0,8,0.35
2013-6-14,77.5,67.8,58.1,65.4,55.1,46.5,98,68,34,30.06,29.79,9,0,9,0.04
2013-6-15,79.9,69.1,57.0,64.3,56.5,50.4,96,68,37,30.15,30.06,6,0,6,0.04
2013-6-16,82.8,73.4,64.8,68.2,62.6,59.8,91,71,47,30.12,30.03,4,0,6,0.04
2013-6-17,80.1,73.2,69.3,73.6,69.1,62.2,98,87,68,30.06,29.97,6,0,6,0.31
2013-6-18,77.7,71.3,67.6,73.6,69.4,62.8,98,94,73,29.97,29.82,6,0,6,0.83
2013-6-19,77.4,71.8,62.6,71.5,63.4,59.5,98,77,55,30.15,29.94,3,0,3,0.04
2013-6-20,77.4,70.2,66.0,66.3,63.2,58.6,95,80,53,30.27,30.15,4,0,4,0.04
2013-6-21,79.0,70.4,62.6,63.2,57.9,52.0,93,67,43,30.27,30.21,4,0,4,0.04
2013-6-22,79.3,70.4,61.3,66.3,62.3,56.9,93,77,54,30.24,30.15,4,0,4,0.04
2013-6-23,84.6,75.0,67.8,72.5,64.7,56.8,97,73,39,30.21,30.12,6,0,6,0.04
2013-6-24,84.2,75.9,69.6,71.8,66.6,62.4,94,75,48,30.21,30.12,6,0,6,0.04
2013-6-25,85.8,76.7,69.6,72.3,66.7,59.8,95,74,42,30.15,30.00,5,0,5,0.04
2013-6-26,86.5,73.6,67.6,69.9,65.3,54.4,95,77,41,30.06,29.94,10,0,10,0.55
2013-6-27,83.3,74.8,67.1,74.1,69.1,66.0,98,84,57,29.97,29.76,9,0,9,0.04
2013-6-28,87.8,76.7,68.7,73.8,65.1,55.9,97,71,37,29.79,29.62,11,0,11,0.20
2013-6-29,82.8,75.1,68.9,72.6,65.7,57.7,97,75,43,29.73,29.65,6,0,6,0.04
2013-6-30,82.0,74.6,69.4,70.0,65.8,61.2,91,75,50,29.88,29.73,6,0,6,0.04
2013-7-1,78.3,72.8,68.0,71.3,66.6,63.0,98,82,61,30.00,29.85,7,0,7,0.04
2013-7-2,77.5,72.5,70.9,69.9,67.7,64.6,96,85,70,30.18,30.00,7,0,7,0.08
2013-7-3,78.3,73.3,70.0,75.7,71.6,69.4,98,95,84,30.24,30.12,5,0,5,1.65
2013-7-4,82.6,75.0,71.1,76.1,69.5,63.1,97,84,57,30.27,30.18,6,0,6,0.51
2013-7-5,81.1,75.2,72.0,72.8,70.1,66.5,93,85,64,30.27,30.21,5,0,5,0.12
2013-7-6,81.5,74.8,70.9,72.9,68.1,61.9,98,82,52,30.27,30.12,8,0,10,0.31
2013-7-7,81.0,74.5,69.6,74.9,69.8,63.0,98,86,66,30.21,30.09,6,0,6,1.57
2013-7-8,82.8,74.8,69.4,73.9,67.0,57.8,98,79,44,30.21,30.12,5,0,5,1.34
2013-7-9,84.4,77.1,70.9,75.7,68.6,61.6,97,77,48,30.18,30.09,4,0,4,0.04
2013-7-10,83.5,76.2,71.1,70.5,67.3,62.7,90,75,50,30.12,29.97,5,0,5,0.04
2013-7-11,80.1,73.4,69.6,70.8,68.0,64.1,92,84,66,30.00,29.91,5,0,5,1.46
2013-7-12,75.0,71.4,68.2,69.4,66.0,61.8,98,84,65,30.06,29.91,6,0,6,0.04
2013-7-13,76.6,72.7,68.0,69.9,65.6,61.8,91,79,65,30.18,30.06,4,0,4,0.00
2013-7-14,81.9,77.0,71.6,73.4,68.0,63.3,98,76,56,30.32,30.15,5,0,5,0.04
2013-7-15,83.8,80.8,72.1,66.7,64.2,58.0,83,58,42,30.35,30.27,4,0,4,0.00
2013-7-16,87.3,76.6,68.0,73.0,65.9,59.2,94,72,42,30.32,30.24,8,0,8,0.00
2013-7-17,87.3,77.4,71.6,74.4,68.9,60.5,93,77,46,30.27,30.15,7,0,7,0.00
2013-7-18,88.0,78.7,70.3,74.4,67.6,59.2,94,72,38,30.18,30.09,0,0,0,0.00
2013-7-19,86.7,79.4,72.7,73.2,68.0,62.2,92,70,45,30.12,30.00,6,0,6,0.00
2013-7-20,83.3,75.5,71.4,72.1,68.7,58.8,90,80,53,30.06,29.94,6,0,6,0.04
2013-7-21,84.4,74.6,70.9,73.4,68.9,60.2,96,84,50,30.03,29.94,7,0,7,0.04
2013-7-22,83.7,75.2,70.7,74.6,69.4,59.4,98,84,47,30.00,29.85,7,0,7,0.00
2013-7-23,85.1,76.6,69.4,70.4,64.4,57.2,92,69,39,29.88,29.79,8,0,8,0.00
2013-7-24,85.3,76.0,68.4,72.1,63.6,58.2,91,68,42,29.91,29.79,6,0,6,0.00
2013-7-25,77.2,71.3,65.7,67.2,60.5,55.2,90,70,47,30.06,29.88,5,0,5,0.71
2013-7-26,79.7,72.8,67.5,64.9,60.0,53.8,88,67,43,30.15,30.03,4,0,4,0.71
2013-7-27,72.5,69.8,67.6,68.4,65.6,58.9,97,87,63,30.06,29.97,4,0,4,2.83
2013-7-28,80.1,72.9,67.6,73.6,66.1,57.8,98,81,48,30.03,29.94,4,0,4,2.83
2013-7-29,79.2,72.3,66.4,68.0,59.3,47.5,94,68,33,30.21,30.03,6,0,6,2.83
2013-7-30,78.6,71.0,63.5,64.1,56.0,48.9,80,61,37,30.24,30.18,4,0,4,2.83
2013-7-31,75.9,71.8,68.9,68.7,65.5,63.1,90,81,66,30.18,30.03,0,0,0,2.83
2013-8-1,81.3,74.4,69.6,71.1,65.0,58.1,93,75,46,30.03,29.88,6,0,6,2.83
2013-8-2,81.1,73.0,65.8,69.2,60.7,50.5,92,69,35,30.06,29.94,4,0,4,2.83
2013-8-3,84.6,75.0,68.5,71.6,63.8,56.6,89,71,39,30.06,29.97,6,0,6,2.83
2013-8-4,81.1,74.3,68.9,68.8,57.6,46.6,89,60,30,30.06,29.94,10,0,10,2.83
2013-8-5,78.4,71.4,64.8,61.2,56.6,53.0,75,60,44,30.12,30.00,4,0,4,2.83
2013-8-6,74.8,70.5,65.8,65.4,62.7,60.5,89,77,64,30.09,30.00,5,0,5,2.83
2013-8-7,78.8,73.0,69.1,66.3,62.8,57.4,82,71,49,30.12,30.06,6,0,6,2.83
2013-8-8,81.1,74.0,70.5,70.9,66.5,62.2,90,78,53,30.09,30.03,6,0,6,2.83
2013-8-9,85.8,76.3,71.4,72.3,66.0,58.4,89,72,42,30.09,30.03,5,0,5,2.83
2013-8-10,85.1,73.3,70.0,71.6,65.8,54.7,88,78,44,30.15,30.06,5,0,5,2.83
2013-8-11,85.3,76.3,70.9,73.7,65.2,58.5,87,72,41,30.15,30.06,6,0,6,2.83
2013-8-12,84.7,77.0,70.2,70.9,64.2,54.5,88,67,36,30.09,29.97,6,0,6,2.83
2013-8-13,82.4,72.6,68.9,71.3,65.6,60.4,88,79,49,29.97,29.85,10,0,10,2.83
2013-8-14,73.0,69.0,63.3,64.9,53.9,42.6,84,62,34,30.12,29.88,4,0,4,2.83
2013-8-15,70.2,64.3,58.8,54.2,46.7,40.2,72,55,34,30.18,30.09,4,0,4,2.83
2013-8-16,69.3,62.5,56.1,54.3,49.4,45.0,78,64,43,30.18,30.12,3,0,3,2.83
2013-8-17,65.1,62.1,59.4,58.6,54.4,50.1,84,76,68,30.21,30.15,4,0,4,2.83
2013-8-18,72.5,66.9,63.5,64.9,60.7,57.9,89,81,62,30.24,30.12,0,0,0,0.12
2013-8-19,72.9,68.2,65.5,67.5,63.0,60.2,88,83,77,30.21,30.09,0,0,0,0.39
2013-8-20,77.7,70.9,65.5,67.9,62.4,57.7,88,76,51,30.21,30.12,0,0,0,0.08
2013-8-21,80.6,73.4,68.7,70.6,64.4,57.9,86,74,47,30.24,30.15,6,0,6,0.08
2013-8-22,82.9,74.2,68.4,67.2,62.0,53.1,85,68,37,30.18,30.03,8,0,8,0.08
2013-8-23,80.1,71.7,65.1,69.5,60.6,53.5,86,70,41,30.12,30.00,8,0,8,0.12
2013-8-24,77.5,68.4,61.5,57.4,51.4,39.6,77,57,27,30.32,30.12,0,0,0,0.12
2013-8-25,75.4,66.6,58.8,62.5,55.0,51.4,86,68,45,30.38,30.29,0,0,0,0.12
2013-8-26,78.4,67.3,57.0,63.0,56.1,52.2,86,69,45,30.32,30.12,4,0,4,0.12
2013-8-27,83.5,72.7,63.0,69.1,63.1,58.2,88,73,50,30.15,30.00,4,0,4,0.12
2013-8-28,82.8,75.1,68.4,73.8,67.6,64.8,91,78,59,30.03,29.91,5,0,5,0.12
2013-8-29,82.9,76.3,70.2,73.7,68.0,59.8,91,77,53,30.03,29.91,5,0,5,0.12
2013-8-30,81.3,74.0,68.7,71.0,68.8,66.8,96,85,62,30.09,29.97,4,0,4,0.12
2013-8-31,84.2,72.8,67.5,74.9,69.4,66.0,96,90,72,29.97,29.91,10,0,10,0.12
2013-9-1,83.1,72.2,68.5,77.0,70.5,67.5,97,94,79,29.94,29.85,5,0,5,0.43
2013-9-2,81.9,73.5,67.3,77.0,71.0,66.4,97,92,78,29.94,29.85,4,0,4,0.12
2013-9-3,83.8,74.8,68.2,75.3,69.6,64.8,96,85,59,30.00,29.85,7,0,7,0.12
2013-9-4,79.0,70.0,61.3,68.3,63.7,59.9,95,82,56,30.12,30.00,5,0,5,0.12
2013-9-5,81.3,70.5,61.5,68.1,62.5,56.0,97,79,44,30.12,30.06,5,0,5,0.12
2013-9-6,75.0,68.0,62.6,63.5,60.5,53.9,94,78,58,30.21,30.12,4,0,4,0.12
2013-9-7,77.5,67.5,58.6,67.7,63.1,57.2,95,86,65,30.15,30.00,6,0,6,0.12
2013-9-8,81.3,72.0,63.7,73.6,67.8,62.8,97,87,64,30.03,29.94,5,0,5,0.12
2013-9-9,81.0,73.0,66.6,72.3,69.3,65.4,96,89,72,30.18,30.00,5,0,5,0.12
2013-9-10,83.8,74.5,66.7,74.6,70.1,65.9,97,87,63,30.24,30.18,5,0,5,0.12
2013-9-11,84.9,74.3,67.3,75.3,70.9,66.4,97,90,67,30.21,30.09,6,0,6,0.12
2013-9-12,84.4,74.6,68.5,75.6,70.8,67.7,97,89,71,30.09,29.85,5,0,5,0.12
2013-9-13,77.9,70.2,61.7,68.4,60.2,51.5,96,73,43,29.94,29.82,9,0,9,0.12
2013-9-14,70.2,61.2,52.9,60.2,53.6,50.3,93,77,53,30.15,29.94,6,0,6,0.12
2013-9-15,74.5,62.8,52.3,64.3,57.8,51.0,95,85,57,30.24,30.12,6,0,6,0.12
2013-9-16,78.6,68.3,59.9,69.8,62.5,57.5,97,83,57,30.21,30.09,6,0,6,0.12
2013-9-17,69.1,63.2,57.6,58.2,55.3,51.8,90,76,55,30.32,30.21,5,0,5,0.12
2013-9-18,69.3,61.2,55.8,60.2,54.6,51.5,91,80,61,30.32,30.18,3,0,4,0.12
2013-9-19,73.0,65.2,59.4,64.9,61.2,57.5,95,87,73,30.21,30.09,5,0,5,0.12
2013-9-20,79.2,68.4,63.7,70.6,66.1,62.7,97,93,74,30.09,29.97,4,0,4,0.16
2013-9-21,72.1,67.5,64.2,70.8,66.6,63.5,98,97,95,29.97,29.73,8,0,8,0.79
2013-9-22,72.1,63.6,56.3,63.8,58.9,54.9,98,86,55,29.94,29.76,6,0,6,0.35
2013-9-23,68.5,60.4,54.7,58.6,54.5,50.9,96,82,59,30.09,29.94,4,0,4,0.00
2013-9-24,72.9,62.9,55.6,61.7,58.3,54.2,96,86,61,30.09,29.94,0,0,0,0.00
2013-9-25,65.1,60.5,55.6,63.3,59.4,54.8,97,96,93,29.97,29.88,0,0,0,0.08
2013-9-26,70.9,63.0,56.3,64.0,57.7,52.4,98,84,53,30.06,29.91,0,0,0,0.00
2013-9-27,70.5,60.8,51.6,61.8,54.8,50.8,97,83,54,30.18,30.06,0,0,0,0.00
2013-9-28,67.1,59.2,52.3,59.9,54.1,51.2,97,84,62,30.27,30.18,0,0,0,0.00
2013-9-29,68.2,59.7,52.7,58.7,55.0,50.0,96,85,65,30.18,30.03,0,0,0,0.00
2013-9-30,72.0,60.9,50.9,61.0,55.2,50.1,97,83,51,30.09,30.00,0,0,0,0.00
2013-10-1,77.0,65.3,55.2,65.5,59.4,54.3,97,83,51,30.12,30.03,0,0,0,0.00
2013-10-2,79.3,66.3,56.3,67.7,60.5,55.5,97,84,51,30.15,30.06,0,0,0,0.00
2013-10-3,79.5,67.6,59.4,69.1,62.3,58.5,97,85,53,30.15,30.06,2,0,2,0.00
2013-10-4,81.1,68.3,58.5,70.3,62.9,57.6,97,85,50,30.15,30.09,0,0,0,0.00
2013-10-5,82.4,70.1,60.4,71.9,64.6,59.6,97,85,52,30.15,30.06,0,0,0,0.00
2013-10-6,79.5,73.6,65.5,70.4,65.3,62.5,95,77,57,30.06,29.94,0,0,0,0.00
2013-10-7,71.4,67.2,57.4,69.6,64.2,53.8,97,90,75,30.03,29.82,8,0,8,0.55
2013-10-8,63.0,58.3,52.5,53.8,47.8,45.7,85,69,54,30.21,30.03,5,0,5,0.00
2013-10-9,66.4,58.3,52.7,52.0,48.1,45.7,81,69,54,30.21,30.12,9,0,9,0.00
2013-10-10,68.4,60.1,53.2,63.0,56.0,47.9,93,87,77,30.12,29.94,6,0,6,0.00
2013-10-11,71.1,65.6,60.6,64.6,61.6,59.2,96,88,70,29.97,29.91,10,0,10,0.00
2013-10-12,68.9,65.0,59.5,64.2,61.9,58.1,95,90,80,30.12,29.97,3,0,3,0.00
2013-10-13,66.6,63.1,61.0,63.9,61.5,59.8,97,95,89,30.24,30.09,5,0,5,0.00
2013-10-14,65.7,61.4,59.2,62.2,59.2,56.7,97,93,80,30.24,30.18,6,0,6,0.00
2013-10-15,68.5,60.6,54.0,58.6,55.3,52.2,97,84,57,30.21,30.06,6,0,6,0.00
2013-10-16,70.3,61.9,53.4,62.8,57.8,52.0,95,87,68,30.09,29.94,6,0,6,0.00
2013-10-17,66.9,63.0,59.2,65.1,61.9,58.3,98,96,93,29.97,29.82,4,0,4,0.08
2013-10-18,66.0,58.1,49.8,62.1,53.3,48.5,98,86,56,30.03,29.88,3,0,4,0.00
2013-10-19,61.0,56.5,52.0,59.5,55.4,50.6,98,96,94,29.97,29.82,4,0,4,0.00
2013-10-20,61.0,51.3,42.8,51.6,42.6,37.5,98,75,43,30.09,29.91,6,0,6,0.04
2013-10-21,66.0,50.9,37.8,51.7,44.8,36.4,95,81,51,30.12,29.97,6,0,6,0.00
2013-10-22,65.5,57.7,52.7,59.0,53.8,50.5,96,88,66,29.97,29.79,5,0,5,0.00
2013-10-23,61.9,54.0,42.6,55.3,43.0,27.6,97,70,38,30.00,29.70,13,1,13,0.00
2013-10-24,54.7,44.0,33.4,36.8,32.0,27.7,86,64,45,30.15,30.00,8,0,8,0.00
2013-10-25,50.0,41.3,33.1,35.8,30.2,25.2,87,67,43,30.32,30.15,11,0,11,0.00
2013-10-26,56.3,42.1,27.9,35.5,29.5,23.7,85,64,39,30.32,30.03,8,0,8,0.00
2013-10-27,66.4,51.9,37.0,45.7,39.7,33.5,87,66,40,30.09,30.00,10,0,10,0.00
2013-10-28,66.6,54.2,43.7,55.5,48.6,40.8,94,82,60,30.24,30.09,5,0,5,0.00
2013-10-29,69.1,58.4,50.5,57.8,52.5,48.5,96,82,54,30.29,30.21,5,0,5,0.00
2013-10-30,74.5,61.5,52.9,61.0,55.8,51.5,96,83,53,30.27,30.12,6,0,6,0.00
2013-10-31,68.4,63.6,56.7,62.0,57.3,54.1,92,81,65,30.15,29.85,8,0,8,0.00
2013-11-1,68.9,64.4,55.2,64.3,60.6,54.1,97,88,73,29.85,29.67,12,1,12,0.24
2013-11-2,68.2,56.7,46.4,58.0,47.0,35.9,98,74,37,29.97,29.70,11,1,11,0.00
2013-11-3,58.5,46.9,36.0,42.5,35.6,31.1,90,68,40,30.32,29.97,9,0,9,0.00
2013-11-4,53.1,44.8,38.3,35.3,30.1,26.4,78,57,44,30.50,30.32,9,1,9,0.00
2013-11-5,55.6,46.6,37.0,46.9,35.0,24.8,90,65,52,30.53,30.38,5,0,5,0.00
2013-11-6,68.5,55.8,48.9,51.8,48.4,45.5,91,78,51,30.38,30.09,6,0,6,0.00
2013-11-7,63.3,51.2,41.0,58.6,43.1,28.6,96,77,45,30.12,29.94,12,0,12,0.00
2013-11-8,54.1,42.0,30.9,35.5,27.5,22.4,86,59,36,30.27,30.12,11,0,11,0.00
2013-11-9,56.1,42.4,29.5,33.5,28.1,24.7,84,60,37,30.32,30.15,6,0,6,0.00
2013-11-10,70.3,51.0,33.6,42.5,31.8,23.2,85,52,27,30.24,30.06,12,1,12,0.00
2013-11-11,59.2,44.7,30.4,31.8,27.6,21.3,76,53,32,30.29,30.09,6,0,6,0.00
2013-11-12,57.9,40.9,29.1,38.6,27.2,12.6,81,60,45,30.41,30.00,9,1,9,0.00
2013-11-13,46.4,33.5,23.9,20.7,16.9,12.3,73,52,32,30.47,30.38,9,0,9,0.00
2013-11-14,58.5,38.3,23.0,28.5,21.2,16.7,78,54,24,30.41,30.27,8,1,8,0.00
2013-11-15,58.3,43.8,28.4,46.1,31.7,20.1,90,65,39,30.29,30.15,6,0,6,0.00
2013-11-16,58.5,53.1,48.4,55.7,51.2,45.8,97,93,87,30.24,30.18,3,0,3,0.04
2013-11-17,63.0,58.0,53.8,61.3,57.0,52.7,98,96,93,30.18,29.85,4,0,4,0.12
2013-11-18,70.0,60.8,49.8,63.5,47.4,26.5,98,67,34,30.00,29.82,9,1,9,0.12
2013-11-19,54.3,47.0,39.6,28.8,24.7,20.7,49,41,36,30.27,29.97,8,1,8,0.00
2013-11-20,49.6,42.1,35.4,28.7,24.4,20.9,56,49,42,30.41,30.27,10,1,10,0.00
2013-11-21,54.5,47.2,41.5,41.9,36.0,24.8,75,65,51,30.47,30.35,8,0,8,0.00
2013-11-22,61.7,55.0,48.2,57.2,50.2,41.5,95,84,74,30.35,30.06,8,0,8,0.00
2013-11-23,59.2,52.1,38.1,55.9,39.1,16.5,98,65,38,30.18,30.06,10,1,10,0.00
2013-11-24,38.1,31.4,24.1,16.5,6.7,-9.1,45,36,15,30.47,30.18,13,1,13,0.00
2013-11-25,38.1,30.0,18.7,15.4,10.9,5.3,64,46,31,30.50,30.29,6,0,6,0.00
2013-11-26,42.8,35.7,31.8,42.3,31.3,14.2,98,85,41,30.29,29.59,9,1,9,2.09
2013-11-27,44.2,37.0,26.6,43.7,27.9,10.4,98,71,48,30.15,29.53,17,2,17,0.83
2013-11-28,43.3,30.3,21.4,20.6,15.2,9.1,70,54,39,30.41,30.12,6,0,6,0.24
2013-11-29,49.3,34.6,22.5,30.2,20.8,16.6,80,59,38,30.56,30.38,8,1,8,0.24
2013-11-30,44.6,34.1,26.6,24.0,19.2,15.8,69,55,41,30.59,30.32,8,1,8,0.24
2013-12-1,67.1,33.5,22.5,48.2,22.8,17.5,81,67,38,30.32,29.97,6,0,6,0.24
2013-12-2,56.7,42.2,27.3,41.1,31.4,23.1,84,68,45,29.97,29.79,5,0,5,0.24
2013-12-3,58.3,47.4,34.2,49.0,41.3,30.7,88,80,66,29.97,29.82,6,0,6,0.24
2013-12-4,57.7,53.6,49.3,57.0,52.4,46.7,98,96,84,30.06,29.94,0,0,0,0.24
2013-12-5,64.6,61.5,57.6,63.8,60.9,57.0,98,98,98,30.09,29.97,8,0,8,0.24
2013-12-6,75.7,69.3,64.0,65.8,63.8,60.3,98,84,62,30.03,29.91,14,4,14,0.24
2013-12-7,63.9,49.8,41.9,60.6,42.4,32.4,97,76,58,30.38,30.00,11,3,11,0.28
2013-12-8,41.9,34.4,31.3,33.5,30.3,27.6,97,86,67,30.38,30.21,10,1,10,0.24
2013-12-9,41.7,37.0,32.5,41.2,36.5,31.8,98,98,97,30.21,30.00,4,0,4,0.24
2013-12-10,51.6,40.5,28.0,49.7,36.1,18.9,98,85,54,30.27,29.91,13,1,13,0.24
2013-12-11,48.6,34.0,22.5,29.1,24.0,19.5,88,69,40,30.38,30.24,8,1,8,0.24
2013-12-12,44.6,34.6,26.4,25.2,17.7,10.3,81,52,29,30.35,30.24,9,1,9,0.24
2013-12-13,50.2,34.2,22.5,26.6,20.2,13.8,79,58,36,30.32,30.21,8,0,8,0.24
2013-12-14,38.1,36.4,35.1,35.4,31.5,24.9,97,83,61,30.24,29.76,8,1,8,0.67
2013-12-15,49.5,39.8,30.4,43.1,32.1,23.2,98,76,49,30.03,29.70,13,1,13,0.24
2013-12-16,55.9,39.3,27.5,35.8,29.3,23.4,86,69,42,30.12,30.03,8,0,8,0.24
2013-12-17,62.1,44.2,29.8,39.0,31.8,26.4,90,65,38,30.06,29.85,15,2,15,0.24
2013-12-18,49.3,38.5,28.9,26.5,18.6,13.5,62,45,27,30.24,30.03,11,1,11,0.24
2013-12-19,62.6,42.3,25.3,31.8,23.4,17.4,77,51,26,30.27,30.15,10,1,10,0.24
2013-12-20,63.1,49.3,36.1,45.4,35.3,22.7,83,59,41,30.18,30.09,11,1,11,0.24
2013-12-21,67.6,56.6,43.0,62.6,52.3,40.5,95,86,75,30.12,29.97,11,2,11,0.24
2013-12-22,69.6,64.5,59.5,67.2,62.5,58.6,97,93,88,30.06,29.94,13,2,13,1.06
2013-12-23,63.3,55.8,39.6,62.5,53.5,32.1,98,92,73,30.15,29.97,10,1,10,0.71
2013-12-24,44.6,36.2,27.0,32.3,22.2,10.1,76,57,43,30.41,30.12,9,1,10,0.31
2013-12-25,38.5,27.5,19.0,15.6,11.7,8.7,73,52,33,30.47,30.29,8,1,8,0.24
2013-12-26,51.3,32.0,20.5,28.4,19.9,12.3,78,62,40,30.32,30.18,7,0,7,0.24
2013-12-27,52.0,34.4,23.0,27.5,21.0,17.8,81,61,33,30.41,30.29,6,0,6,0.24
2013-12-28,53.6,37.7,23.7,38.9,26.9,18.5,91,68,38,30.35,30.12,5,0,6,0.24
2013-12-29,56.8,45.0,40.1,52.1,41.5,36.3,97,88,67,30.12,29.70,10,1,10,0.75
2013-12-30,50.5,41.0,32.4,44.4,35.1,31.1,96,81,62,30.09,29.91,6,0,6,0.24
2013-12-31,50.4,38.6,29.5,35.0,27.1,18.2,91,66,38,30.29,30.06,13,1,13,0.24
2014-1-1,49.8,35.5,27.1,30.4,24.8,21.7,83,67,40,30.32,30.09,8,0,8,0.24
2014-1-2,39.9,36.0,31.5,38.2,32.4,25.1,97,87,74,30.09,29.62,13,1,13,0.28